Flag for Norway Weather past 2 weeks in Sandefjord, Norway

Now
86 °F

Passing clouds.


Feels Like: 85 °F
Forecast: 61 / 82 °F
Wind: 7 mph from Southwest

Location: Torp

Current Time: Jul 23, 2014 at 7:21:59 PM

Latest Report: Jul 23, 2014 at 6:50 PM


Visibility: N/A

Pressure: 30.21 "Hg

Humidity: 38%

Dew point: 57 °F

Location of SandefjordLocation

Historic Weather in Sandefjord — Graph

°F

Sandefjord temperature yesterday

Maximum temperature yesterday: 84 °F (at 1:20 PM)
Minimum temperature yesterday: 59 °F (at 5:20 AM)
Average temperature yesterday: 75 °F

Past Weeks' High & Low Weather Summary

 TemperatureHumidityPressure
High90 °F (Jul 23, 4:20 PM)100% (Jul 14, 6:50 AM)30.30 "Hg (Jul 14, 6:50 AM)
Low52 °F (Jul 18, 4:50 AM)31% (Jul 12, 4:50 PM)29.62 "Hg (Jul 13, 8:50 PM)
Average68 °F66%30.02 "Hg
* Reported Jul 8 5:20 PM — Jul 23 5:50 PM, Sandefjord, Weather by CustomWeather, © 2014

Note: Actual official high and low records may vary slightly from our data, if they occured in-between our weather recording intervals... More about our weather records

Advertising

Sandefjord weather history for previous 24 hours

 ConditionsComfort  
Time TempWeatherWind HumidityBarometerVisibility
5:50 PM
Jul 23
88 °FPassing clouds.5 mph35%30.21 "HgN/A
5:20 PM86 °FPassing clouds.3 mph38%30.21 "HgN/A
4:50 PM88 °FSunny.1 mph31%30.24 "Hg10 mi
4:20 PM90 °FSunny.1 mph33%30.24 "Hg10 mi
3:50 PM86 °FSunny.2 mph38%30.24 "Hg10 mi
3:20 PM86 °FPassing clouds.7 mph40%30.24 "HgN/A
2:50 PM86 °FSunny.2 mph43%30.27 "Hg10 mi
12:20 PM84 °FSunny.2 mph37%30.30 "Hg10 mi
11:50 AM84 °FSunny.2 mph40%30.30 "Hg10 mi
10:50 AM82 °FPassing clouds.3 mph45%30.30 "HgN/A
9:50 AM77 °FPassing clouds.5 mph54%30.30 "HgN/A
7:50 AM70 °FSunny.2 mph69%30.30 "Hg10 mi
7:20 AM68 °FSunny.1 mph69%30.30 "Hg10 mi
6:50 AM66 °FSunny.5 mph78%30.30 "Hg10 mi
6:20 AM64 °FSunny.3 mph78%30.30 "Hg10 mi
5:50 AM63 °FSunny.3 mph83%30.30 "Hg10 mi
5:20 AM61 °FPassing clouds.2 mph83%30.30 "HgN/A
4:50 AM63 °FMild.2 mph77%30.30 "HgN/A
4:20 AM64 °FPassing clouds.1 mph73%30.30 "HgN/A
3:50 AM63 °FPassing clouds.2 mph73%30.30 "HgN/A
3:20 AM64 °FPassing clouds.1 mph73%30.30 "HgN/A
2:50 AM66 °FPassing clouds.2 mph68%30.30 "HgN/A
2:20 AM68 °FMild.1 mph60%30.27 "HgN/A
1:50 AM68 °FMild.1 mph60%30.27 "HgN/A
Weather by CustomWeather, © 2014

See weather overviewHow to use our weather pages